Location: Buckland
(65.9785°N, 161.1281°W)
Time: 22:50:05
(UTC+00:00)

Transit 4A - Pass Details

Date: 04 December 2020
Orbit: 864 x 981 km, 66.8° (Epoch: 19 January)

Event Time Altitude Azimuth Distance (km) Brightness Sun altitude
Rises 01:56:15 0° 306° (NW) 3,695 11.2 -6.1°
Reaches altitude 10° 01:59:03 10° 298° (WNW) 2,740 10.6 -6.3°
Maximum altitude 02:04:43 35° 236° (SW) 1,529 9.9 -6.7°
Drops below altitude 10° 02:10:18 10° 173° (S) 2,684 10.8 -7.1°
Sets 02:13:01 0° 165° (SSE) 3,610 11.3 -7.3°
